Weather History for Tekamah, NE

Change the Weather History Date:

Monday, December 31, 2012

  Actual Average Record
Temperature  
Mean Temperature 16 °F -  
Max Temperature 23 °F 28 °F 57 °F (1980)
Min Temperature 7 °F 8 °F -17 °F (1967)
Degree Days  
Heating Degree Days 48    
Moisture  
Dew Point 13 °F    
Average Humidity 79    
Maximum Humidity 88    
Minimum Humidity 68    
Precipitation  
Precipitation 0.00 in - - ()
Sea Level Pressure  
Sea Level Pressure 30.23 in    
Wind  
Wind Speed 9 mph (North)    
Max Wind Speed 23 mph    
Max Gust Speed -    
Visibility 7 miles    
Events      
Averages and records for this station are not official NWS values.
T = Trace of Precipitation, MM = Missing Value Source: NWS Daily Summary

Daily Weather History Graph

Daily Weather History Graph

Search for Another Location

Airport:

Trip Planner

Search our weather history database for the weather conditions in past years. The results will help you decide how hot, cold, wet, or windy it might be!

Date:

Astronomy

Dec. 31, 2012 Rise Set
Actual Time 7:51 AM CST 5:04 PM CST
Civil Twilight 7:20 AM CST 5:35 PM CST
Nautical Twilight 6:45 AM CST 6:10 PM CST
Astronomical Twilight 6:11 AM CST 6:44 PM CST
Moon 8:39 PM CST (12/31) 9:31 AM CST (12/31)
Length of Visible Light 10h 15m
Length of Day
9h 12m
Waning Gibbous, 90% of the Moon is Illuminated
Dec 31
Waning Gibbous
Jan 4
Last Quarter
Jan 11
New
Jan 18
First Quarter
Jan 26
Full

Hourly Weather History & Observations

Time (CST) Temp. Windchill Dew Point Humidity Pressure Visibility Wind Dir Wind Speed Gust Speed Precip Events Conditions
12:54 AM 16.0 °F 10.4 °F 10.0 °F 77% 30.14 in 10.0 mi NNW 3.5 mph - N/A   Clear
1:54 AM 15.1 °F - 10.9 °F 84% 30.17 in 10.0 mi Calm Calm - N/A   Clear
2:54 AM 10.9 °F 4.7 °F 8.1 °F 88% 30.19 in 10.0 mi North 3.5 mph - N/A   Clear
3:54 AM 17.1 °F 2.0 °F 12.0 °F 81% 30.19 in 10.0 mi North 16.1 mph - N/A   Clear
4:39 AM 17.6 °F 1.3 °F 12.2 °F 79% 30.17 in 4.0 mi North 19.6 mph - N/A   Haze
4:54 AM 16.0 °F 0.1 °F 12.0 °F 84% 30.21 in 6.0 mi North 17.3 mph - N/A   Mostly Cloudy
5:54 AM 17.1 °F -0.6 °F 12.9 °F 84% 30.20 in 4.0 mi North 23.0 mph - N/A   Overcast
6:54 AM 18.0 °F 4.2 °F 15.1 °F 88% 30.22 in 4.0 mi North 13.8 mph - N/A   Overcast
7:51 AM 19.4 °F 7.9 °F 15.8 °F 86% 30.18 in 4.0 mi North 10.4 mph - N/A   Overcast
7:54 AM 19.0 °F 8.2 °F 15.1 °F 85% 30.22 in 4.0 mi North 9.2 mph - N/A   Overcast
8:54 AM 19.9 °F 12.1 °F 16.0 °F 85% 30.24 in 3.0 mi North 5.8 mph - N/A   Overcast
9:54 AM 21.0 °F 10.6 °F 16.0 °F 81% 30.25 in 4.0 mi NNW 9.2 mph - N/A   Haze
10:33 AM 21.2 °F 11.7 °F 15.8 °F 80% 30.22 in 7.0 mi North 8.1 mph - N/A   Partly Cloudy
10:54 AM 21.0 °F 9.9 °F 15.1 °F 78% 30.27 in 8.0 mi NNW 10.4 mph - N/A   Clear
11:54 AM 23.0 °F 13.9 °F 15.1 °F 72% 30.27 in 9.0 mi North 8.1 mph - N/A   Mostly Cloudy
12:54 PM 23.0 °F 13.1 °F 14.0 °F 68% 30.24 in 9.0 mi North 9.2 mph - N/A   Scattered Clouds
1:54 PM 23.0 °F 12.4 °F 15.1 °F 72% 30.22 in 8.0 mi North 10.4 mph - N/A   Scattered Clouds
2:54 PM 23.0 °F 13.1 °F 14.0 °F 68% 30.21 in 8.0 mi NNE 9.2 mph - N/A   Scattered Clouds
3:27 PM 21.2 °F 11.7 °F 14.0 °F 74% 30.17 in 7.0 mi NNE 8.1 mph - N/A   Mostly Cloudy
3:54 PM 21.9 °F 13.4 °F 14.0 °F 72% 30.21 in 7.0 mi NNE 6.9 mph - N/A   Overcast
4:03 PM 21.2 °F 12.6 °F 15.8 °F 80% 30.17 in 7.0 mi NNE 6.9 mph - N/A   Overcast
4:54 PM 21.9 °F 13.4 °F 15.1 °F 75% 30.22 in 6.0 mi North 6.9 mph - N/A   Haze
6:54 PM 19.9 °F 10.1 °F 14.0 °F 78% 30.26 in 7.0 mi North 8.1 mph - N/A   Overcast
7:54 PM 19.0 °F 9.0 °F 12.9 °F 77% 30.27 in 8.0 mi North 8.1 mph - N/A   Overcast
8:03 PM 19.4 °F 9.5 °F 12.2 °F 74% 30.23 in 7.0 mi North 8.1 mph - N/A   Overcast
8:31 PM 17.6 °F 7.3 °F 12.2 °F 79% 30.23 in 7.0 mi North 8.1 mph - N/A   Overcast
8:54 PM 17.1 °F 5.8 °F 12.0 °F 81% 30.27 in 7.0 mi North 9.2 mph - N/A   Mostly Cloudy
9:54 PM 12.9 °F 0.7 °F 8.1 °F 81% 30.30 in 9.0 mi NNW 9.2 mph - N/A   Partly Cloudy
10:54 PM 10.0 °F -3.7 °F 5.0 °F 80% 30.31 in 9.0 mi NNW 10.4 mph - N/A   Partly Cloudy
11:54 PM 7.0 °F -9.1 °F 1.0 °F 77% 30.32 in 10.0 mi North 12.7 mph - N/A   Clear